Time,TemperatureF,DewpointF,PressureIn,WindDirection,WindDirectionDegrees,WindSpeedMPH,WindSpeedGustMPH,Humidity,HourlyPrecipIn,Conditions,Clouds,dailyrainin,SoftwareType,DateUTC
2013-05-02 00:02:00,33.0,32.0,30.52,NNE,16,0.0,2.0,95,0.00,,,0.15,,2013-05-02 05:02:00,
2013-05-02 00:12:00,33.0,32.0,30.52,NNE,16,0.0,2.0,95,0.00,,,0.15,,2013-05-02 05:12:00,
2013-05-02 00:22:00,33.0,32.0,30.52,NNE,24,0.0,2.0,95,0.00,,,0.15,,2013-05-02 05:22:00,
2013-05-02 00:32:00,33.0,32.0,30.53,NNE,23,0.0,2.0,96,0.00,,,0.15,,2013-05-02 05:32:00,
2013-05-02 00:42:00,33.0,32.0,30.53,NNE,23,0.0,2.0,96,0.00,,,0.15,,2013-05-02 05:42:00,
2013-05-02 00:52:00,33.0,32.0,30.52,NNE,18,0.0,3.0,96,0.00,,,0.15,,2013-05-02 05:52:00,
2013-05-02 01:01:00,33.0,32.0,30.52,North,10,1.0,3.0,96,0.00,,,0.15,,2013-05-02 06:01:00,
2013-05-02 01:12:00,33.0,32.0,30.52,North,10,1.0,3.0,96,0.00,,,0.15,,2013-05-02 06:12:00,
2013-05-02 01:21:00,33.0,32.0,30.53,North,5,0.0,2.0,96,0.00,,,0.15,,2013-05-02 06:21:00,
2013-05-02 01:32:00,33.0,32.0,30.54,NNE,20,0.0,3.0,96,0.00,,,0.15,,2013-05-02 06:32:00,
2013-05-02 01:42:00,33.0,32.0,30.54,NNE,20,0.0,3.0,96,0.00,,,0.15,,2013-05-02 06:42:00,
2013-05-02 01:52:00,33.0,32.0,30.53,ENE,69,0.0,2.0,96,0.00,,,0.15,,2013-05-02 06:52:00,
2013-05-02 02:02:00,33.0,32.0,30.54,ENE,69,0.0,1.0,96,0.00,,,0.15,,2013-05-02 07:02:00,
2013-05-02 02:11:00,33.0,32.0,30.54,ENE,69,0.0,1.0,96,0.00,,,0.15,,2013-05-02 07:11:00,
2013-05-02 02:21:00,33.0,32.0,30.53,NE,34,0.0,2.0,96,0.00,,,0.15,,2013-05-02 07:21:00,
2013-05-02 02:32:00,33.0,32.0,30.54,NNE,33,0.0,0.0,96,0.00,,,0.15,,2013-05-02 07:32:00,
2013-05-02 02:42:00,33.0,32.0,30.54,NNE,33,0.0,0.0,96,0.00,,,0.15,,2013-05-02 07:42:00,
2013-05-02 02:52:00,32.0,31.0,30.53,NNE,32,0.0,0.0,96,0.00,,,0.15,,2013-05-02 07:52:00,
2013-05-02 03:02:00,32.0,31.0,30.54,NNE,32,0.0,0.0,96,0.00,,,0.15,,2013-05-02 08:02:00,
2013-05-02 03:11:00,32.0,31.0,30.54,NNE,32,0.0,0.0,96,0.00,,,0.15,,2013-05-02 08:11:00,
2013-05-02 03:22:00,32.0,31.0,30.55,NNE,32,0.0,0.0,96,0.00,,,0.15,,2013-05-02 08:22:00,
2013-05-02 03:32:00,32.0,31.0,30.55,NNE,32,0.0,0.0,96,0.00,,,0.15,,2013-05-02 08:32:00,
2013-05-02 03:42:00,32.0,31.0,30.55,NNE,32,0.0,0.0,96,0.00,,,0.15,,2013-05-02 08:42:00,
2013-05-02 03:52:00,32.0,31.0,30.55,NNE,32,0.0,0.0,96,0.00,,,0.15,,2013-05-02 08:52:00,
2013-05-02 04:02:00,32.0,31.0,30.54,NNE,32,0.0,0.0,97,0.00,,,0.15,,2013-05-02 09:02:00,
2013-05-02 04:12:00,32.0,31.0,30.54,NNE,32,0.0,0.0,97,0.00,,,0.15,,2013-05-02 09:12:00,
2013-05-02 04:21:00,32.0,31.0,30.54,NNE,32,0.0,0.0,96,0.00,,,0.15,,2013-05-02 09:21:00,
2013-05-02 04:32:00,32.0,31.0,30.54,NNE,31,0.0,0.0,96,0.00,,,0.15,,2013-05-02 09:32:00,
2013-05-02 04:42:00,32.0,31.0,30.54,NNE,31,0.0,0.0,96,0.00,,,0.15,,2013-05-02 09:42:00,
2013-05-02 04:52:00,32.0,31.0,30.54,NNE,31,0.0,0.0,96,0.00,,,0.15,,2013-05-02 09:52:00,
2013-05-02 05:02:00,32.0,31.0,30.55,NNE,31,0.0,0.0,97,0.00,,,0.15,,2013-05-02 10:02:00,
2013-05-02 05:12:00,32.0,31.0,30.55,NNE,31,0.0,0.0,97,0.00,,,0.15,,2013-05-02 10:12:00,
2013-05-02 05:22:00,32.0,31.0,30.54,NNE,31,0.0,0.0,97,0.00,,,0.15,,2013-05-02 10:22:00,
2013-05-02 05:33:00,32.0,31.0,30.55,NNE,31,0.0,0.0,97,0.00,,,0.15,,2013-05-02 10:33:00,
2013-05-02 05:42:00,32.0,31.0,30.55,NNE,31,0.0,0.0,97,0.00,,,0.15,,2013-05-02 10:42:00,
2013-05-02 05:52:00,32.0,31.0,30.54,NNE,31,0.0,0.0,97,0.00,,,0.15,,2013-05-02 10:52:00,
2013-05-02 06:02:00,32.0,31.0,30.55,NNE,31,0.0,0.0,97,0.00,,,0.15,,2013-05-02 11:02:00,
2013-05-02 06:12:00,32.0,31.0,30.55,NNE,31,0.0,0.0,97,0.00,,,0.15,,2013-05-02 11:12:00,
2013-05-02 06:22:00,32.0,31.0,30.55,NNE,31,0.0,0.0,97,0.00,,,0.15,,2013-05-02 11:22:00,
2013-05-02 06:32:00,32.0,31.0,30.55,NNE,31,0.0,0.0,97,0.00,,,0.15,,2013-05-02 11:32:00,
2013-05-02 06:42:00,32.0,31.0,30.55,NNE,31,0.0,0.0,97,0.00,,,0.15,,2013-05-02 11:42:00,
2013-05-02 06:52:00,32.0,31.0,30.54,NNE,31,0.0,0.0,97,0.00,,,0.15,,2013-05-02 11:52:00,
2013-05-02 07:01:00,32.0,31.0,30.56,NNE,31,0.0,0.0,97,0.00,,,0.15,,2013-05-02 12:01:00,
2013-05-02 07:11:00,32.0,31.0,30.56,NNE,31,0.0,0.0,97,0.00,,,0.15,,2013-05-02 12:11:00,
2013-05-02 07:21:00,32.0,31.0,30.57,NNE,31,0.0,0.0,97,0.00,,,0.15,,2013-05-02 12:21:00,
2013-05-02 07:32:00,32.0,31.0,30.55,NNE,31,0.0,0.0,97,0.00,,,0.12,,2013-05-02 12:32:00,
2013-05-02 07:42:00,32.0,31.0,30.55,NNE,31,0.0,0.0,97,0.00,,,0.12,,2013-05-02 12:42:00,
2013-05-02 07:52:00,32.0,31.0,30.55,NNE,31,0.0,0.0,97,0.00,,,0.12,,2013-05-02 12:52:00,
2013-05-02 08:01:00,32.0,31.0,30.55,NNE,31,0.0,0.0,97,0.00,,,0.12,,2013-05-02 13:01:00,
2013-05-02 08:11:00,32.0,31.0,30.55,NNE,31,0.0,0.0,97,0.00,,,0.12,,2013-05-02 13:11:00,
2013-05-02 08:21:00,32.0,31.0,30.55,NNE,31,0.0,0.0,97,0.00,,,0.12,,2013-05-02 13:21:00,
2013-05-02 08:32:00,32.0,31.0,30.55,NNE,32,0.0,0.0,97,0.00,,,0.10,,2013-05-02 13:32:00,
2013-05-02 08:42:00,32.0,31.0,30.55,NNE,32,0.0,0.0,97,0.00,,,0.10,,2013-05-02 13:42:00,
2013-05-02 08:52:00,32.0,31.0,30.56,NNE,32,0.0,0.0,97,0.00,,,0.10,,2013-05-02 13:52:00,
2013-05-02 09:02:00,32.0,31.0,30.56,NNE,32,0.0,0.0,97,0.00,,,0.10,,2013-05-02 14:02:00,
2013-05-02 09:11:00,32.0,31.0,30.56,NNE,32,0.0,0.0,97,0.00,,,0.10,,2013-05-02 14:11:00,
2013-05-02 09:22:00,32.0,31.0,30.57,NNE,32,0.0,0.0,97,0.00,,,0.10,,2013-05-02 14:22:00,
2013-05-02 09:32:00,32.0,31.0,30.57,NNE,30,0.0,0.0,97,0.00,,,0.07,,2013-05-02 14:32:00,
2013-05-02 09:42:00,32.0,31.0,30.57,NNE,30,0.0,0.0,97,0.00,,,0.07,,2013-05-02 14:42:00,
2013-05-02 09:52:00,32.0,31.0,30.58,NNE,30,0.0,0.0,97,0.00,,,0.07,,2013-05-02 14:52:00,
2013-05-02 10:02:00,32.0,31.0,30.58,NNE,30,0.0,0.0,97,0.00,,,0.07,,2013-05-02 15:02:00,
2013-05-02 10:12:00,32.0,31.0,30.58,NNE,30,0.0,0.0,97,0.00,,,0.07,,2013-05-02 15:12:00,
2013-05-02 10:22:00,32.0,31.0,30.58,NNE,30,0.0,0.0,97,0.00,,,0.07,,2013-05-02 15:22:00,
2013-05-02 10:33:00,31.0,30.0,30.59,NNE,30,0.0,0.0,97,0.00,,,0.05,,2013-05-02 15:33:00,
2013-05-02 10:43:00,31.0,30.0,30.59,NNE,30,0.0,0.0,97,0.00,,,0.05,,2013-05-02 15:43:00,
2013-05-02 11:02:00,32.0,31.0,30.59,NNE,30,0.0,0.0,96,0.00,,,0.05,,2013-05-02 16:02:00,
2013-05-02 11:13:00,32.0,31.0,30.59,NNE,30,0.0,0.0,96,0.00,,,0.05,,2013-05-02 16:13:00,
2013-05-02 11:22:00,32.0,31.0,30.59,NNE,30,0.0,0.0,96,0.00,,,0.05,,2013-05-02 16:22:00,
2013-05-02 11:32:00,32.0,31.0,30.59,NNE,30,0.0,0.0,96,0.00,,,0.05,,2013-05-02 16:32:00,
2013-05-02 11:43:00,32.0,31.0,30.59,NNE,30,0.0,0.0,96,0.00,,,0.05,,2013-05-02 16:43:00,
2013-05-02 11:52:00,32.0,31.0,30.59,NNE,29,0.0,0.0,95,0.00,,,0.05,,2013-05-02 16:52:00,
2013-05-02 12:02:00,32.0,31.0,30.60,NNE,29,0.0,0.0,95,0.00,,,0.05,,2013-05-02 17:02:00,
2013-05-02 12:12:00,32.0,31.0,30.60,NNE,29,0.0,0.0,95,0.00,,,0.05,,2013-05-02 17:12:00,
2013-05-02 12:22:00,33.0,32.0,30.60,NNE,28,0.0,0.0,95,0.00,,,0.05,,2013-05-02 17:22:00,
2013-05-02 12:32:00,33.0,32.0,30.59,NNE,28,0.0,0.0,95,0.00,,,0.05,,2013-05-02 17:32:00,
2013-05-02 12:42:00,33.0,32.0,30.59,NNE,28,0.0,0.0,95,0.00,,,0.05,,2013-05-02 17:42:00,
2013-05-02 12:52:00,33.0,31.0,30.59,NNE,25,0.0,0.0,94,0.00,,,0.05,,2013-05-02 17:52:00,
2013-05-02 13:01:00,33.0,31.0,30.58,NNE,24,0.0,0.0,92,0.00,,,0.05,,2013-05-02 18:01:00,
2013-05-02 13:11:00,33.0,31.0,30.58,NNE,24,0.0,0.0,92,0.00,,,0.05,,2013-05-02 18:11:00,
2013-05-02 13:21:00,34.0,32.0,30.58,NE,54,2.0,3.0,91,0.00,,,0.05,,2013-05-02 18:21:00,
2013-05-02 13:32:00,34.0,32.0,30.57,North,355,2.0,5.0,92,0.00,,,0.04,,2013-05-02 18:32:00,
2013-05-02 13:42:00,34.0,32.0,30.57,North,355,2.0,5.0,92,0.00,,,0.04,,2013-05-02 18:42:00,
2013-05-02 13:52:00,34.0,32.0,30.56,NNE,28,1.0,5.0,92,0.00,,,0.04,,2013-05-02 18:52:00,
2013-05-02 14:01:00,33.0,31.0,30.56,NNE,17,2.0,7.0,93,0.00,,,0.04,,2013-05-02 19:01:00,
2013-05-02 14:11:00,33.0,31.0,30.56,NNE,17,2.0,7.0,93,0.00,,,0.04,,2013-05-02 19:11:00,
2013-05-02 14:21:00,33.0,31.0,30.58,ENE,61,2.0,5.0,91,0.00,,,0.04,,2013-05-02 19:21:00,
2013-05-02 14:32:00,34.0,31.0,30.57,NE,38,1.0,7.0,89,0.00,,,0.03,,2013-05-02 19:32:00,
2013-05-02 14:42:00,34.0,31.0,30.57,NE,38,1.0,7.0,89,0.00,,,0.03,,2013-05-02 19:42:00,
2013-05-02 14:52:00,34.0,31.0,30.56,North,360,2.0,5.0,90,0.00,,,0.03,,2013-05-02 19:52:00,
2013-05-02 15:02:00,34.0,31.0,30.56,North,11,1.0,4.0,90,0.00,,,0.03,,2013-05-02 20:02:00,
2013-05-02 15:11:00,34.0,31.0,30.56,North,11,1.0,4.0,90,0.00,,,0.03,,2013-05-02 20:11:00,
2013-05-02 15:22:00,34.0,31.0,30.56,East,90,0.0,3.0,90,0.00,,,0.03,,2013-05-02 20:22:00,
2013-05-02 15:32:00,34.0,31.0,30.55,ENE,63,1.0,4.0,90,0.03,,,0.05,,2013-05-02 20:32:00,
2013-05-02 15:41:00,34.0,31.0,30.55,ENE,63,1.0,4.0,90,0.03,,,0.05,,2013-05-02 20:41:00,
2013-05-02 15:52:00,33.0,30.0,30.54,ENE,59,1.0,4.0,90,0.06,,,0.08,,2013-05-02 20:52:00,
2013-05-02 16:01:00,33.0,31.0,30.55,ENE,65,1.0,3.0,91,0.08,,,0.10,,2013-05-02 21:01:00,
2013-05-02 16:11:00,33.0,31.0,30.55,ENE,65,1.0,3.0,91,0.08,,,0.10,,2013-05-02 21:11:00,
2013-05-02 16:21:00,33.0,30.0,30.55,NNE,22,1.0,4.0,90,0.10,,,0.12,,2013-05-02 21:21:00,
2013-05-02 16:33:00,33.0,31.0,30.56,NNE,13,1.0,4.0,91,0.07,,,0.12,,2013-05-02 21:33:00,
2013-05-02 16:42:00,33.0,31.0,30.56,NNE,13,1.0,4.0,91,0.07,,,0.12,,2013-05-02 21:42:00,
2013-05-02 16:53:00,33.0,31.0,30.55,NE,50,1.0,4.0,92,0.06,,,0.13,,2013-05-02 21:53:00,
2013-05-02 17:02:00,33.0,31.0,30.54,ENE,69,1.0,3.0,93,0.05,,,0.14,,2013-05-02 22:02:00,
2013-05-02 17:12:00,33.0,31.0,30.54,ENE,69,1.0,3.0,93,0.05,,,0.14,,2013-05-02 22:12:00,
2013-05-02 17:22:00,33.0,31.0,30.54,NE,49,1.0,5.0,93,0.04,,,0.15,,2013-05-02 22:22:00,
2013-05-02 17:32:00,33.0,31.0,30.54,NE,52,1.0,8.0,94,0.04,,,0.16,,2013-05-02 22:32:00,
2013-05-02 17:42:00,33.0,31.0,30.54,NE,52,1.0,8.0,94,0.04,,,0.16,,2013-05-02 22:42:00,
2013-05-02 17:52:00,32.0,30.0,30.54,NE,52,1.0,5.0,93,0.04,,,0.17,,2013-05-02 22:52:00,
2013-05-02 18:02:00,32.0,30.0,30.53,NNE,33,1.0,4.0,94,0.04,,,0.18,,2013-05-02 23:02:00,
2013-05-02 18:11:00,32.0,30.0,30.53,NNE,33,1.0,4.0,94,0.04,,,0.18,,2013-05-02 23:11:00,
2013-05-02 18:22:00,33.0,31.0,30.53,NE,38,1.0,4.0,94,0.03,,,0.18,,2013-05-02 23:22:00,
2013-05-02 18:32:00,33.0,31.0,30.53,NE,49,1.0,3.0,93,0.03,,,0.19,,2013-05-02 23:32:00,
2013-05-02 18:42:00,33.0,31.0,30.53,NE,49,1.0,3.0,93,0.03,,,0.19,,2013-05-02 23:42:00,
2013-05-02 18:51:00,32.0,30.0,30.53,NE,55,0.0,5.0,93,0.02,,,0.19,,2013-05-02 23:51:00,
2013-05-02 19:01:00,32.0,30.0,30.53,NNE,25,1.0,3.0,94,0.02,,,0.20,,2013-05-03 00:01:00,
2013-05-02 19:11:00,32.0,30.0,30.53,NNE,25,1.0,3.0,94,0.02,,,0.20,,2013-05-03 00:11:00,
2013-05-02 19:21:00,32.0,30.0,30.53,NE,36,0.0,3.0,94,0.02,,,0.20,,2013-05-03 00:21:00,
2013-05-02 19:31:00,32.0,30.0,30.52,ENE,70,1.0,5.0,94,0.02,,,0.21,,2013-05-03 00:31:00,
2013-05-02 19:42:00,32.0,30.0,30.52,ENE,70,1.0,5.0,94,0.02,,,0.21,,2013-05-03 00:42:00,
2013-05-02 19:52:00,32.0,30.0,30.53,ENE,58,2.0,6.0,94,0.02,,,0.21,,2013-05-03 00:52:00,
2013-05-02 20:01:00,32.0,31.0,30.53,ESE,117,1.0,5.0,95,0.01,,,0.21,,2013-05-03 01:01:00,
2013-05-02 20:11:00,32.0,31.0,30.53,ESE,117,1.0,5.0,95,0.01,,,0.21,,2013-05-03 01:11:00,
2013-05-02 20:21:00,32.0,31.0,30.52,NE,55,1.0,3.0,95,0.02,,,0.22,,2013-05-03 01:21:00,
2013-05-02 20:31:00,32.0,31.0,30.52,NNE,33,1.0,5.0,95,0.01,,,0.22,,2013-05-03 01:31:00,
2013-05-02 20:42:00,32.0,31.0,30.52,NNE,33,1.0,5.0,95,0.01,,,0.22,,2013-05-03 01:42:00,
2013-05-02 20:52:00,32.0,31.0,30.52,NNE,16,0.0,3.0,95,0.01,,,0.22,,2013-05-03 01:52:00,
2013-05-02 21:01:00,32.0,31.0,30.52,ENE,57,1.0,5.0,95,0.01,,,0.22,,2013-05-03 02:01:00,
2013-05-02 21:11:00,32.0,31.0,30.52,ENE,57,1.0,5.0,95,0.01,,,0.22,,2013-05-03 02:11:00,
2013-05-02 21:21:00,32.0,31.0,30.52,NE,45,1.0,4.0,95,0.00,,,0.22,,2013-05-03 02:21:00,
2013-05-02 21:32:00,32.0,31.0,30.52,North,350,1.0,5.0,95,0.00,,,0.22,,2013-05-03 02:32:00,
2013-05-02 21:42:00,32.0,31.0,30.52,North,350,1.0,5.0,95,0.00,,,0.22,,2013-05-03 02:42:00,
2013-05-02 21:52:00,32.0,31.0,30.52,North,355,1.0,4.0,95,0.00,,,0.22,,2013-05-03 02:52:00,
2013-05-02 22:01:00,32.0,31.0,30.52,ENE,71,1.0,4.0,95,0.00,,,0.22,,2013-05-03 03:01:00,
2013-05-02 22:11:00,32.0,31.0,30.52,ENE,71,1.0,4.0,95,0.00,,,0.22,,2013-05-03 03:11:00,
2013-05-02 22:21:00,32.0,31.0,30.52,NE,55,1.0,3.0,95,0.00,,,0.22,,2013-05-03 03:21:00,
2013-05-02 22:33:00,32.0,31.0,30.52,NE,56,2.0,5.0,95,0.00,,,0.22,,2013-05-03 03:33:00,
2013-05-02 22:42:00,32.0,31.0,30.52,NE,56,2.0,5.0,95,0.00,,,0.22,,2013-05-03 03:42:00,
2013-05-02 22:52:00,32.0,31.0,30.51,North,11,2.0,7.0,95,0.01,,,0.23,,2013-05-03 03:52:00,
2013-05-02 23:03:00,32.0,31.0,30.51,NE,41,1.0,4.0,96,0.01,,,0.23,,2013-05-03 04:03:00,
2013-05-02 23:12:00,32.0,31.0,30.51,NE,41,1.0,4.0,96,0.01,,,0.23,,2013-05-03 04:12:00,
2013-05-02 23:22:00,32.0,31.0,30.51,ENE,61,1.0,4.0,96,0.01,,,0.23,,2013-05-03 04:22:00,
2013-05-02 23:32:00,32.0,31.0,30.51,NNE,18,2.0,5.0,96,0.01,,,0.22,,2013-05-03 04:32:00,
2013-05-02 23:42:00,32.0,31.0,30.51,NNE,18,2.0,5.0,96,0.01,,,0.22,,2013-05-03 04:42:00,
2013-05-02 23:52:00,32.0,31.0,30.50,ENE,61,1.0,6.0,96,0.00,,,0.22,,2013-05-03 04:52:00,